Weather History for Adak, AK

Change the Weather History Date:

Friday, October 26, 2012

  Actual Average Record
Temperature  
Mean Temperature 40 °F -  
Max Temperature 42 °F 46 °F 53 °F (1988)
Min Temperature 37 °F 36 °F 22 °F (1968)
Degree Days  
Heating Degree Days 26    
Moisture  
Dew Point 34 °F    
Average Humidity 81    
Maximum Humidity 93    
Minimum Humidity 67    
Precipitation  
Precipitation 0.00 in - - ()
Sea Level Pressure  
Sea Level Pressure 30.12 in    
Wind  
Wind Speed 13 mph (NE)    
Max Wind Speed 24 mph    
Max Gust Speed 31 mph    
Visibility 10 miles    
Events      
Averages and records for this station are not official NWS values.
T = Trace of Precipitation, MM = Missing Value Source: NWS Daily Summary

Daily Weather History Graph

Daily Weather History Graph

Search for Another Location

Airport:

Trip Planner

Search our weather history database for the weather conditions in past years. The results will help you decide how hot, cold, wet, or windy it might be!

Date:

Astronomy

Oct. 26, 2012 Rise Set
Actual Time 9:31 AM HADT 7:28 PM HADT
Civil Twilight 8:56 AM HADT 8:03 PM HADT
Nautical Twilight 8:17 AM HADT 8:42 PM HADT
Astronomical Twilight 7:38 AM HADT 9:21 PM HADT
Moon 6:04 PM HADT (10/26) 6:26 AM HADT (10/26)
Length of Visible Light 11h 06m
Length of Day
9h 56m
Waxing Gibbous, 92% of the Moon is Illuminated
Oct 26
Waxing Gibbous
Oct 29
Full
Nov 6
Last Quarter
Nov 13
New
Nov 20
First Quarter

Hourly Weather History & Observations

Time (HADT) Temp. Windchill Dew Point Humidity Pressure Visibility Wind Dir Wind Speed Gust Speed Precip Events Conditions
12:16 AM 37.4 °F 29.8 °F 35.6 °F 93% 30.23 in 10.0 mi NE 11.5 mph - N/A   Clear
12:36 AM 37.4 °F 30.8 °F 33.8 °F 87% 30.23 in 10.0 mi NE 9.2 mph - N/A   Clear
12:56 AM 37.4 °F 29.8 °F 33.8 °F 87% 30.23 in 10.0 mi NE 11.5 mph - N/A   Clear
1:16 AM 37.4 °F 29.8 °F 33.8 °F 87% 30.23 in 10.0 mi NE 11.5 mph - N/A   Clear
1:36 AM 37.4 °F 30.3 °F 33.8 °F 87% 30.22 in 10.0 mi NNE 10.4 mph - N/A   Scattered Clouds
1:56 AM 37.4 °F 30.3 °F 33.8 °F 87% 30.22 in 10.0 mi NE 10.4 mph - N/A   Mostly Cloudy
2:16 AM 39.2 °F 32.5 °F 33.8 °F 81% 30.22 in 10.0 mi NE 10.4 mph - N/A   Mostly Cloudy
2:36 AM 37.4 °F 30.3 °F 33.8 °F 87% 30.21 in 10.0 mi NNE 10.4 mph - N/A   Scattered Clouds
2:56 AM 37.4 °F 29.8 °F 33.8 °F 87% 30.21 in 10.0 mi NNE 11.5 mph - N/A   Partly Cloudy
3:16 AM 37.4 °F 30.8 °F 32.0 °F 81% 30.21 in 10.0 mi NNE 9.2 mph - N/A   Partly Cloudy
3:36 AM 39.2 °F 31.6 °F 33.8 °F 81% 30.20 in 10.0 mi NNE 12.7 mph - N/A   Mostly Cloudy
3:56 AM 39.2 °F 32.0 °F 33.8 °F 81% 30.20 in 10.0 mi NNE 11.5 mph - N/A   Overcast
4:16 AM 39.2 °F 32.0 °F 33.8 °F 81% 30.20 in 10.0 mi North 11.5 mph - N/A   Overcast
4:36 AM 39.2 °F 32.0 °F 33.8 °F 81% 30.19 in 10.0 mi NNE 11.5 mph - N/A   Overcast
4:56 AM 39.2 °F 32.0 °F 33.8 °F 81% 30.18 in 10.0 mi NNE 11.5 mph 16.1 mph N/A   Overcast
5:16 AM 39.2 °F 32.5 °F 35.6 °F 87% 30.18 in 10.0 mi NE 10.4 mph - N/A   Overcast
5:36 AM 37.4 °F 30.8 °F 33.8 °F 87% 30.18 in 10.0 mi NE 9.2 mph - N/A   Mostly Cloudy
5:56 AM 39.2 °F 32.0 °F 33.8 °F 81% 30.17 in 10.0 mi NNE 11.5 mph - N/A   Overcast
6:16 AM 37.4 °F 28.9 °F 30.2 °F 75% 30.16 in 10.0 mi NNE 13.8 mph 18.4 mph N/A   Mostly Cloudy
6:36 AM 37.4 °F 28.5 °F 30.2 °F 75% 30.16 in 10.0 mi NNE 15.0 mph - N/A   Mostly Cloudy
6:56 AM 37.4 °F 27.5 °F 33.8 °F 87% 30.16 in 10.0 mi NNE 18.4 mph 23.0 mph N/A   Mostly Cloudy
7:16 AM 39.2 °F 30.8 °F 33.8 °F 81% 30.16 in 10.0 mi NNE 15.0 mph 21.9 mph N/A   Mostly Cloudy
7:36 AM 37.4 °F 27.2 °F 33.8 °F 87% 30.15 in 7.0 mi NNE 19.6 mph - N/A   Mostly Cloudy
7:56 AM 37.4 °F 28.5 °F 33.8 °F 87% 30.15 in 10.0 mi NNE 15.0 mph 21.9 mph N/A   Overcast
8:16 AM 37.4 °F 29.3 °F 33.8 °F 87% 30.15 in 10.0 mi NNE 12.7 mph - N/A   Mostly Cloudy
8:36 AM 37.4 °F 28.5 °F 33.8 °F 87% 30.15 in 10.0 mi NE 15.0 mph - N/A   Overcast
8:56 AM 37.4 °F 27.5 °F 33.8 °F 87% 30.15 in 10.0 mi NE 18.4 mph 27.6 mph N/A   Overcast
9:16 AM 37.4 °F 30.8 °F 32.0 °F 81% 30.14 in 10.0 mi NNE 9.2 mph - N/A   Overcast
9:36 AM 37.4 °F 28.9 °F 33.8 °F 87% 30.14 in 10.0 mi NNE 13.8 mph 18.4 mph N/A   Overcast
9:56 AM 37.4 °F 28.9 °F 30.2 °F 75% 30.14 in 10.0 mi NNE 13.8 mph - N/A   Overcast
10:16 AM 37.4 °F 27.8 °F 33.8 °F 87% 30.14 in 10.0 mi NNE 17.3 mph 24.2 mph N/A   Overcast
10:36 AM 37.4 °F 27.8 °F 30.2 °F 75% 30.14 in 10.0 mi NNE 17.3 mph - N/A   Overcast
10:56 AM 39.2 °F 28.5 °F 32.0 °F 75% 30.14 in 10.0 mi NE 24.2 mph 31.1 mph N/A   Overcast
11:16 AM 39.2 °F 31.6 °F 32.0 °F 75% 30.13 in 10.0 mi NNE 12.7 mph 17.3 mph N/A   Overcast
11:36 AM 39.2 °F 30.8 °F 30.2 °F 70% 30.12 in 10.0 mi NNE 15.0 mph - N/A   Overcast
11:56 AM 39.2 °F 32.0 °F 30.2 °F 70% 30.12 in 10.0 mi NE 11.5 mph - N/A   Overcast
12:16 PM 39.2 °F 30.5 °F 30.2 °F 70% 30.11 in 10.0 mi NNE 16.1 mph 19.6 mph N/A   Overcast
12:36 PM 39.2 °F 31.2 °F 30.2 °F 70% 30.11 in 10.0 mi ENE 13.8 mph - N/A   Overcast
12:56 PM 41.0 °F 32.8 °F 33.8 °F 76% 30.11 in 10.0 mi NE 16.1 mph - N/A   Overcast
1:16 PM 39.2 °F 30.8 °F 33.8 °F 81% 30.11 in 8.0 mi NE 15.0 mph 25.3 mph N/A   Overcast
1:36 PM 39.2 °F 29.6 °F 33.8 °F 81% 30.10 in 10.0 mi NE 19.6 mph - N/A   Mostly Cloudy
1:56 PM 39.2 °F 31.2 °F 33.8 °F 81% 30.10 in 10.0 mi NE 13.8 mph 19.6 mph N/A   Overcast
2:16 PM 42.8 °F 34.5 °F 33.8 °F 70% 30.09 in 10.0 mi NE 18.4 mph 24.2 mph N/A   Mostly Cloudy
2:36 PM 42.8 °F 33.8 °F 33.8 °F 70% 30.08 in 10.0 mi NE 21.9 mph - N/A   Overcast
2:56 PM 41.0 °F 32.5 °F 33.8 °F 76% 30.08 in 10.0 mi NE 17.3 mph 21.9 mph N/A   Overcast
3:16 PM 41.0 °F 32.8 °F 33.8 °F 76% 30.08 in 10.0 mi NE 16.1 mph 23.0 mph N/A   Overcast
3:36 PM 39.2 °F 29.8 °F 33.8 °F 81% 30.07 in 10.0 mi NE 18.4 mph 21.9 mph N/A   Overcast
3:56 PM 41.0 °F 33.1 °F 33.8 °F 76% 30.06 in 10.0 mi NNE 15.0 mph 23.0 mph N/A   Overcast
4:16 PM 42.8 °F 35.1 °F 33.8 °F 70% 30.06 in 10.0 mi NE 16.1 mph 23.0 mph N/A   Overcast
4:36 PM 42.8 °F 34.0 °F 33.8 °F 70% 30.06 in 10.0 mi NNE 20.7 mph 25.3 mph N/A   Overcast
4:56 PM 41.0 °F 33.1 °F 33.8 °F 76% 30.06 in 10.0 mi NE 15.0 mph - N/A   Overcast
5:16 PM 42.8 °F 35.4 °F 35.6 °F 76% 30.05 in 10.0 mi NE 15.0 mph - N/A   Overcast
5:36 PM 41.0 °F 33.9 °F 33.8 °F 76% 30.05 in 10.0 mi NE 12.7 mph 19.6 mph N/A   Mostly Cloudy
5:56 PM 41.0 °F 33.1 °F 33.8 °F 76% 30.05 in 10.0 mi NE 15.0 mph - N/A   Scattered Clouds
6:16 PM 41.0 °F 34.7 °F 33.8 °F 76% 30.05 in 10.0 mi NE 10.4 mph - N/A   Overcast
6:36 PM 39.2 °F 32.5 °F 33.8 °F 81% 30.05 in 10.0 mi NE 10.4 mph - N/A   Overcast
6:56 PM 41.0 °F 34.7 °F 33.8 °F 76% 30.05 in 10.0 mi NE 10.4 mph - N/A   Overcast
7:16 PM 41.0 °F 32.8 °F 35.6 °F 81% 30.05 in 10.0 mi NE 16.1 mph - N/A   Mostly Cloudy
7:36 PM 41.0 °F 34.3 °F 35.6 °F 81% 30.05 in 10.0 mi NE 11.5 mph - N/A   Overcast
7:56 PM 41.0 °F 33.9 °F 35.6 °F 81% 30.05 in 10.0 mi NNE 12.7 mph - N/A   Overcast
8:16 PM 41.0 °F 34.7 °F 35.6 °F 81% 30.06 in 10.0 mi NE 10.4 mph - N/A   Overcast
8:36 PM 39.2 °F 34.2 °F 35.6 °F 87% 30.07 in 10.0 mi ENE 6.9 mph - N/A   Overcast
8:56 PM 39.2 °F 32.0 °F 35.6 °F 87% 30.07 in 10.0 mi NNE 11.5 mph - N/A   Overcast
9:16 PM 41.0 °F 31.9 °F 35.6 °F 81% 30.06 in 10.0 mi NE 19.6 mph - N/A   Overcast
9:36 PM 41.0 °F 32.8 °F 35.6 °F 81% 30.07 in 10.0 mi ENE 16.1 mph 25.3 mph N/A   Overcast
9:56 PM 41.0 °F 32.8 °F 35.6 °F 81% 30.06 in 10.0 mi NE 16.1 mph 24.2 mph N/A   Overcast
10:16 PM 41.0 °F 32.8 °F 35.6 °F 81% 30.06 in 10.0 mi NE 16.1 mph 21.9 mph N/A   Mostly Cloudy
10:36 PM 39.2 °F 32.5 °F 35.6 °F 87% 30.06 in 10.0 mi NNE 10.4 mph - N/A   Mostly Cloudy
10:56 PM 39.2 °F 32.0 °F 33.8 °F 81% 30.05 in 10.0 mi NNE 11.5 mph - N/A   Overcast
11:16 PM 39.2 °F 31.2 °F 35.6 °F 87% 30.06 in 10.0 mi NNE 13.8 mph 19.6 mph N/A   Mostly Cloudy
11:36 PM 39.2 °F 31.6 °F 33.8 °F 81% 30.05 in 10.0 mi NNE 12.7 mph - N/A   Partly Cloudy
11:56 PM 39.2 °F 30.5 °F 35.6 °F 87% 30.05 in 10.0 mi NNE 16.1 mph 20.7 mph N/A   Mostly Cloudy